Change the Weather History Date:

Sunday, January 12, 2014

  Actual Average Record
Temperature  
Mean Temperature 34 °F -  
Max Temperature 42 °F 24 °F 51 °F (2006)
Min Temperature 25 °F 10 °F -7 °F (1997)
Degree Days  
Heating Degree Days 32    
Moisture  
Dew Point 27 °F    
Average Humidity 78    
Maximum Humidity 92    
Minimum Humidity 57    
Precipitation  
Precipitation 0.00 in - - ()
Sea Level Pressure  
Sea Level Pressure 29.63 in    
Wind  
Wind Speed 6 mph (South)    
Max Wind Speed 15 mph    
Max Gust Speed 31 mph    
Visibility 9 miles    
Events      
Averages and records for this station are not official NWS values.
T = Trace of Precipitation, MM = Missing Value Source: NWS Daily Summary

Daily Weather History Graph

Daily Weather History Graph

Search for Another Location

Airport or City:

Trip Planner

Search our weather history database for the weather conditions in past years. The results will help you decide how hot, cold, wet, or windy it might be!

Date:

Astronomy

Jan. 12, 2014 Rise Set
Actual Time 7:31 AM CST 4:47 PM CST
Civil Twilight 6:59 AM CST 5:19 PM CST
Nautical Twilight 6:23 AM CST 5:54 PM CST
Astronomical Twilight 5:49 AM CST 6:28 PM CST
Moon 2:15 PM CST (1/12) 4:29 AM CST (1/12)
Length of Visible Light 10h 19m
Length of Day
9h 16m
Waxing Gibbous, 90% of the Moon is Illuminated
Jan 12
Waxing Gibbous
Jan 15
Full
Jan 23
Last Quarter
Jan 30
New
Feb 6
First Quarter

Hourly Weather History & Observations

Time (CST) Temp. Windchill Dew Point Humidity Pressure Visibility Wind Dir Wind Speed Gust Speed Precip Events Conditions
12:56 AM 27.0 °F 18.7 °F 24.1 °F 89% 29.77 in 9.0 mi WSW 8.1 mph - N/A   Overcast
1:39 AM 27.0 °F 19.5 °F 24.1 °F 89% 29.76 in 8.0 mi WSW 6.9 mph - N/A   Overcast
1:56 AM 27.0 °F 20.5 °F 24.1 °F 89% 29.77 in 8.0 mi WSW 5.8 mph - N/A   Overcast
2:56 AM 28.0 °F 20.8 °F 25.0 °F 88% 29.78 in 7.0 mi SW 6.9 mph - N/A   Overcast
3:56 AM 28.0 °F 21.7 °F 25.0 °F 88% 29.76 in 6.0 mi SW 5.8 mph - N/A   Overcast
4:56 AM 26.1 °F 21.9 °F 24.1 °F 92% 29.73 in 7.0 mi SE 3.5 mph - N/A   Scattered Clouds
5:56 AM 25.0 °F 19.3 °F 23.0 °F 92% 29.71 in 6.0 mi SSE 4.6 mph - N/A   Mostly Cloudy
6:06 AM 25.0 °F 20.7 °F 23.0 °F 92% 29.70 in 7.0 mi SSE 3.5 mph - N/A   Mostly Cloudy
6:56 AM 25.0 °F 20.7 °F 23.0 °F 92% 29.72 in 7.0 mi East 3.5 mph - N/A   Mostly Cloudy
7:03 AM 25.0 °F - 23.0 °F 92% 29.70 in 7.0 mi Calm Calm - N/A   Mostly Cloudy
7:56 AM 27.0 °F 20.5 °F 24.1 °F 89% 29.70 in 6.0 mi SE 5.8 mph - N/A   Clear
8:56 AM 30.0 °F 23.2 °F 26.1 °F 85% 29.66 in 6.0 mi East 6.9 mph - N/A   Clear
9:56 AM 37.0 °F 31.0 °F 25.0 °F 62% 29.63 in 10.0 mi SE 8.1 mph - N/A   Clear
10:56 AM 36.0 °F - 26.1 °F 67% 29.59 in 10.0 mi Calm Calm - N/A   Clear
11:56 AM 41.0 °F 34.7 °F 27.0 °F 57% 29.55 in 10.0 mi SSW 10.4 mph 20.7 mph N/A   Clear
12:56 PM 41.0 °F 33.1 °F 28.0 °F 60% 29.53 in 10.0 mi SSW 15.0 mph 31.1 mph N/A   Clear
1:56 PM 41.0 °F 35.8 °F 28.0 °F 60% 29.52 in 10.0 mi SSW 8.1 mph - N/A   Clear
2:56 PM 41.0 °F 33.5 °F 28.0 °F 60% 29.50 in 10.0 mi SSW 13.8 mph 18.4 mph N/A   Clear
3:56 PM 42.1 °F 35.7 °F 28.9 °F 60% 29.52 in 10.0 mi SSW 11.5 mph - N/A   Clear
4:56 PM 39.0 °F 34.8 °F 30.0 °F 70% 29.52 in 10.0 mi SSW 5.8 mph - N/A   Clear
5:56 PM 39.9 °F 33.9 °F 30.0 °F 68% 29.55 in 10.0 mi SSW 9.2 mph - N/A   Clear
6:56 PM 37.9 °F - 30.0 °F 73% 29.55 in 10.0 mi Calm Calm - N/A   Clear
7:56 PM 37.9 °F - 30.0 °F 73% 29.54 in 10.0 mi Calm Calm - N/A   Clear
8:56 PM 37.0 °F - 30.0 °F 76% 29.55 in 10.0 mi Calm Calm - N/A   Clear
9:56 PM 37.0 °F 33.3 °F 30.9 °F 79% 29.55 in 10.0 mi SW 4.6 mph - N/A   Mostly Cloudy
10:56 PM 35.1 °F - 30.9 °F 85% 29.55 in 10.0 mi Calm Calm - N/A   Overcast
11:56 PM 35.1 °F - 30.9 °F 85% 29.53 in 10.0 mi Calm Calm - N/A   Overcast